Regional Weather Roundup
Issued by NWS

Home | Current Version | Previous Version | Text Only | Print | Product List | Glossary Off
Versions: 1 2 3 4 5 6 7 8 9 10 11 12 13 14 15 16 17 18 19 20 21 22 23 24 25 26 27 28 29 30 31 32 33 34 35 36 37 38 39 40 41 42 43 44 45 46 47 48 49 50

000
ASUS45 KPSR 291000
RWRAZ

PRELIMINARY ARIZONA REGIONAL HOURLY WEATHER ROUNDUP
NATIONAL WEATHER SERVICE PHOENIX AZ
300 AM MST TUE JUL 29 2014

NOTE: FAIR INDICATES FEW OR NO CLOUDS BELOW 12,000 FEET WITH NO
SIGNIFICANT WEATHER AND/OR OBSTRUCTIONS TO VISIBILITY.

AZZ001>003-036-291100-
NORTHWEST ARIZONA

CITY           SKY/WX    TMP DP  RH WIND       PRES   REMARKS
KINGMAN        CLEAR     71  58  63 SE9       30.13S
$$

AZZ004>008-015-016-018-291100-
NORTH CENTRAL ARIZONA

CITY           SKY/WX    TMP DP  RH WIND       PRES   REMARKS
GRAND CANYON   CLEAR     52  50  93 CALM      30.37F
WILLIAMS       CLEAR     54  54 100 SE8       30.44S
PRESCOTT       CLEAR     62  57  83 CALM      30.26S
FLAGSTAFF      CLEAR     53  50  89 CALM      30.40F
PAYSON         CLEAR     64  55  72 CALM      30.28S
PAGE           CLEAR     74  49  41 S3        30.19S
$$

AZZ009>014-017-291100-
NORTHEAST ARIZONA

CITY           SKY/WX    TMP DP  RH WIND       PRES   REMARKS
WINSLOW        NOT AVBL
SAINT JOHNS    MOCLDY    67  59  75 SW3       30.29F
WINDOW ROCK    CLOUDY    62  57  83 CALM      30.37F
$$

AZZ023-291100-
GREATER PHOENIX AREA

CITY           SKY/WX    TMP DP  RH WIND       PRES   REMARKS
PHOENIX        PTCLDY    95  58  28 W8        29.92S
BUCKEYE          N/A     86  59  39 CALM      29.94S
DEER VALLEY    CLEAR     87  60  40 N3        29.95S
SCOTTSDALE     CLEAR     88  62  41 CALM      29.97S
MESA-GATEWAY     N/A    N/A N/A N/A MISG        N/A
$$

AZZ027-028-291100-
SOUTHWEST MARICOPA COUNTY AND PINAL COUNTY

CITY           SKY/WX    TMP DP  RH WIND       PRES   REMARKS
CASA GRANDE    CLEAR     84  57  39 CALM      29.97F
$$

AZZ503-504-507>509-291100-
SOUTHEAST ARIZONA

CITY           SKY/WX    TMP DP  RH WIND       PRES   REMARKS
TUCSON         CLEAR     79  66  64 SE7       30.08F
DAVIS-MONTHAN  CLEAR     78  65  62 SE7       30.06F
NOGALES        CLEAR     68  61  78 S5        30.17S
SIERRA VISTA   PTCLDY    73  57  56 SW8       30.22F
SAFFORD        CLEAR     75  68  78 CALM      30.08F
$$

AZZ020-021-025-026-031-291100-
SOUTHWEST ARIZONA

CITY           SKY/WX    TMP DP  RH WIND       PRES   REMARKS
YUMA           NOT AVBL
$$

CAZ031-033-041-043-047-048-061-291100-
SOUTHERN CALIFORNIA

CITY           SKY/WX    TMP DP  RH WIND       PRES   REMARKS
DOWNTOWN L.A.  CLEAR     71  62  73 CALM      30.01S
L.A. AIRPORT   CLEAR     69  60  73 CALM      30.02S
SAN DIEGO      PTCLDY    73  63  70 CALM      30.03F
BURBANK        CLEAR     74  55  51 SE3       30.02F
ONTARIO        PTCLDY    74  41  30 CALM      30.04F
RIVERSIDE      CLEAR     71  38  29 SE3       30.04F
PALM SPRINGS   CLEAR     89  53  29 S3        29.92F
EL CENTRO NAS  CLEAR     90  51  26 W8        29.86F
IMPERIAL       CLEAR     88  53  30 W6        29.86S
BLYTHE           N/A    N/A N/A N/A MISG      29.88S
$$

NVZ020-UTZ003-291100-
SOUTHERN NEVADA-UTAH

CITY           SKY/WX    TMP DP  RH WIND       PRES   REMARKS
LAS VEGAS      NOT AVBL
SALT LAKE CITY CLOUDY    68  62  81 N5        30.19F
$$

NMZ009-TXZ055-291100-
NEW MEXICO-WEST TEXAS

CITY           SKY/WX    TMP DP  RH WIND       PRES   REMARKS
ALBUQUERQUE    MOCLDY    68  61  78 NE10      30.30F
EL PASO        PTCLDY    74  62  66 N14       30.16R
$$


........................KEY........................
SKY/WX - SKY CONDITION/WEATHER
TMP    - TEMPERATURE IN FAHRENHEIT
DP     - DEW POINT IN FAHRENHEIT
RH     - RELATIVE HUMIDITY IN PERCENT
WIND   - DIRECTION AND SPEED IN MILES PER HOUR (MPH)
VRB    - VARIABLE WIND DIRECTION
PRES   - MEAN SEA LEVEL PRESSURE IN INCHES OF MERCURY
         F - FALLING PRESSURE   R - RISING PRESSURE
         S - STEADY PRESSURE
VSB    - VISIBILITY IN MILES
HX     - HEAT INDEX IN FAHRENHEIT
WCI    - WIND CHILL INDEX IN FAHRENHEIT
TC     - TEMPERATURE IN CELSIUS WHICH IS ALSO KNOWN AS
         TEMPERATURE IN CENTIGRADE
AFB    - AIR FORCE BASE
         LUKE AFB IS LUKE AIR FORCE BASE
         DAVIS-MONTHAN IS DAVIS-MONTHAN AIR FORCE BASE
NAS    - NAVAL AIR STATION
         EL CENTRO NAS IS EL CENTRO NAVAL AIR STATION
N/A    - NOT AVAILABLE


USA.gov is the U.S. government's official web portal to all federal, state and local government web resources and services.